Whiteman AFB, MO

4:54 PM CST on November 16, 2019 (GMT -0600)
Whiteman Air Force Base

Weather History for KSZL - May, 2019

Change the Weather History Date:

Sunday, May 12, 2019

  Actual Average Record
Temperature  
Mean Temperature 49 °F -  
Max Temperature 59 °F 72 °F 86 °F (2005)
Min Temperature 41 °F 53 °F 36 °F (2013)
Degree Days  
Heating Degree Days 16    
Moisture  
Dew Point 49 °F    
Average Humidity 94    
Maximum Humidity 100    
Minimum Humidity 76    
Precipitation  
Precipitation 0.14 in - - ()
Sea Level Pressure  
Sea Level Pressure 29.82 in    
Wind  
Wind Speed 2 mph (NW)    
Max Wind Speed 7 mph    
Max Gust Speed -    
Visibility 10 miles    
Events Rain    
Averages and records for this station are not official NWS values.
T = Trace of Precipitation, MM = Missing Value Source: NWS Daily Summary

Daily Weather History Graph

Daily Weather History Graph

Search for Another Location

Airport or City:

Astronomy

May. 12, 2019 Rise Set
Actual Time 6:05 AM CDT 8:16 PM CDT
Civil Twilight 5:35 AM CDT 8:46 PM CDT
Nautical Twilight 4:59 AM CDT 9:22 PM CDT
Astronomical Twilight 4:19 AM CDT 10:02 PM CDT
Moon 1:24 PM CDT (5/12) 2:39 AM CDT (5/12)
Length of Visible Light 15h 10m
Length of Day
14h 11m
First Quarter, 58% of the Moon is Illuminated
May 12
First Quarter
May 18
Full
May 26
Last Quarter
Jun 3
New
Jun 10
First Quarter

Hourly Weather History & Observations

Time (CDT) Temp. Windchill Dew Point Humidity Pressure Visibility Wind Dir Wind Speed Gust Speed Precip Events Conditions
12:56 AM 47.7 °F - 46.8 °F 97% 29.86 in 10.0 mi East 3.5 mph - N/A   Scattered Clouds
1:56 AM 46.6 °F - 46.4 °F 99% 29.84 in 10.0 mi Calm Calm - N/A   Scattered Clouds
2:56 AM 45.3 °F - 45.3 °F 100% 29.81 in 10.0 mi Calm Calm - N/A   Scattered Clouds
3:56 AM 41.2 °F - 41.2 °F 100% 29.81 in 10.0 mi Calm Calm - N/A   Scattered Clouds
4:56 AM 41.4 °F - 41.4 °F 100% 29.83 in 10.0 mi Calm Calm - N/A   Scattered Clouds
5:56 AM 41.5 °F - 41.5 °F 100% 29.84 in 10.0 mi Calm Calm - N/A   Mostly Cloudy
6:06 AM 42.8 °F - 42.8 °F 100% 29.83 in 10.0 mi Calm Calm - N/A   Mostly Cloudy
6:56 AM 44.6 °F - 44.6 °F 100% 29.85 in 10.0 mi Calm Calm - N/A   Mostly Cloudy
7:16 AM 44.6 °F - 44.6 °F 100% 29.83 in 10.0 mi Calm Calm - N/A   Light Drizzle
7:36 AM 46.4 °F - 46.4 °F 100% 29.82 in 10.0 mi Calm Calm - N/A   Light Drizzle
7:56 AM 46.8 °F - 46.8 °F 100% 29.81 in 10.0 mi SSE 3.5 mph - 0.00 in   Light Drizzle
8:11 AM 46.4 °F - 46.4 °F 100% 29.82 in 10.0 mi Calm Calm - N/A Rain Light Rain
8:56 AM 48.7 °F - 48.7 °F 100% 29.82 in 6.0 mi SE 3.5 mph - 0.01 in   Light Drizzle
10:56 AM 53.4 °F - 53.4 °F 100% 29.81 in 10.0 mi South 4.6 mph - 0.00 in   Mostly Cloudy
11:56 AM 55.8 °F - 51.3 °F 85% 29.81 in 10.0 mi ESE 3.5 mph - N/A   Mostly Cloudy
12:22 PM 55.4 °F - 50.0 °F 82% 29.81 in 6.0 mi SSW 6.9 mph - N/A   Light Drizzle
12:56 PM 53.2 °F - 53.2 °F 100% 29.82 in 6.0 mi West 6.9 mph - 0.06 in Rain Light Rain
1:56 PM 52.9 °F - 52.9 °F 100% 29.80 in 10.0 mi East 5.8 mph - 0.04 in Rain Light Rain
2:56 PM 55.0 °F - 51.6 °F 88% 29.79 in 6.0 mi SE 3.5 mph - 0.00 in   Light Drizzle
3:56 PM 56.1 °F - 51.6 °F 85% 29.81 in 10.0 mi NNW 3.5 mph - 0.01 in Rain Light Rain
3:59 PM 55.4 °F - 51.8 °F 88% 29.81 in 10.0 mi WNW 4.6 mph - N/A Rain Light Rain
4:04 PM 55.4 °F - 53.6 °F 94% 29.81 in 10.0 mi West 5.8 mph - N/A Rain Light Rain
4:09 PM 55.4 °F - 53.6 °F 94% 29.81 in 10.0 mi WNW 5.8 mph - N/A Rain Light Rain
4:48 PM 57.2 °F - 51.8 °F 82% 29.79 in 10.0 mi NW 5.8 mph - N/A   Scattered Clouds
4:56 PM 57.7 °F - 54.0 °F 87% 29.79 in 10.0 mi NW 3.5 mph - 0.02 in   Scattered Clouds
5:50 PM 57.2 °F - 51.8 °F 82% 29.80 in 10.0 mi West 5.8 mph - N/A   Light Drizzle
5:56 PM 56.8 °F - 52.3 °F 85% 29.80 in 10.0 mi NW 4.6 mph - 0.00 in   Light Drizzle
6:00 PM 57.2 °F - 51.8 °F 82% 29.80 in 10.0 mi WNW 3.5 mph - N/A   Scattered Clouds
6:56 PM 57.0 °F - 49.5 °F 76% 29.81 in 10.0 mi North 4.6 mph - 0.00 in   Partly Cloudy
7:56 PM 55.4 °F - 52.0 °F 88% 29.82 in 10.0 mi NNW 3.5 mph - N/A   Partly Cloudy
8:56 PM 50.4 °F - 50.4 °F 100% 29.84 in 10.0 mi North 4.6 mph - N/A   Clear
9:56 PM 49.1 °F - 49.1 °F 100% 29.86 in 10.0 mi Calm Calm - N/A   Clear
10:56 PM 48.2 °F - 48.2 °F 100% 29.88 in 10.0 mi Calm Calm - N/A   Scattered Clouds
11:06 PM 46.4 °F 45.2 °F 46.4 °F 100% 29.88 in 10.0 mi North 3.5 mph - N/A   Mostly Cloudy
11:16 PM 46.4 °F 44.3 °F 46.4 °F 100% 29.88 in 10.0 mi North 4.6 mph - N/A   Scattered Clouds
11:56 PM 48.2 °F - 48.2 °F 100% 29.89 in 10.0 mi Calm Calm - N/A   Mostly Cloudy